Weather History for Escanaba, MI

Change the Weather History Date:

Sunday, December 9, 2012

  Actual Average Record
Temperature  
Mean Temperature 22 °F -  
Max Temperature 30 °F 31 °F 52 °F (1990)
Min Temperature 15 °F 19 °F -5 °F (1958)
Degree Days  
Heating Degree Days 42    
Moisture  
Dew Point 20 °F    
Average Humidity 81    
Maximum Humidity 93    
Minimum Humidity 69    
Precipitation  
Precipitation 0.00 in - - ()
Sea Level Pressure  
Sea Level Pressure 30.06 in    
Wind  
Wind Speed 6 mph (NE)    
Max Wind Speed 16 mph    
Max Gust Speed 26 mph    
Visibility 6 miles    
Events      
Averages and records for this station are not official NWS values.
T = Trace of Precipitation, MM = Missing Value Source: NWS Daily Summary

Daily Weather History Graph

Daily Weather History Graph

Search for Another Location

Airport:

Trip Planner

Search our weather history database for the weather conditions in past years. The results will help you decide how hot, cold, wet, or windy it might be!

Date:

Astronomy

Dec. 09, 2012 Rise Set
Actual Time 8:17 AM EST 5:04 PM EST
Civil Twilight 7:43 AM EST 5:38 PM EST
Nautical Twilight 7:06 AM EST 6:15 PM EST
Astronomical Twilight 6:29 AM EST 6:51 PM EST
Moon 3:40 AM EST (12/9) 2:18 PM EST (12/9)
Length of Visible Light 9h 54m
Length of Day
8h 46m
Waning Crescent, 19% of the Moon is Illuminated
Dec 9
Waning Crescent
Dec 13
New
Dec 20
First Quarter
Dec 28
Full
Jan 4
Last Quarter

Hourly Weather History & Observations

Time (EST) Temp. Windchill Dew Point Humidity Pressure Visibility Wind Dir Wind Speed Gust Speed Precip Events Conditions
12:15 AM 17.6 °F - 14.0 °F 86% 30.18 in 10.0 mi Calm Calm - N/A   Clear
12:35 AM 17.6 °F - 14.0 °F 86% 30.19 in 10.0 mi Calm Calm - N/A   Clear
12:55 AM 17.6 °F - 12.2 °F 79% 30.20 in 10.0 mi Calm Calm - N/A   Clear
1:15 AM 15.8 °F - 10.4 °F 79% 30.21 in 10.0 mi Calm Calm - N/A   Clear
1:35 AM 17.6 °F - 12.2 °F 79% 30.22 in 10.0 mi Calm Calm - N/A   Clear
2:15 AM 17.6 °F - 12.2 °F 79% 30.21 in 4.0 mi Calm Calm - N/A   Clear
2:35 AM 15.8 °F - 12.2 °F 86% 30.22 in 10.0 mi Calm Calm - N/A   Clear
2:55 AM 15.8 °F 10.2 °F 12.2 °F 86% 30.21 in 10.0 mi NE 3.5 mph - N/A   Clear
3:15 AM 15.8 °F - 12.2 °F 86% 30.22 in 10.0 mi Calm Calm - N/A   Clear
3:35 AM 17.6 °F - 14.0 °F 86% 30.21 in 10.0 mi Calm Calm - N/A   Clear
3:55 AM 17.6 °F 12.3 °F 12.2 °F 79% 30.23 in 10.0 mi North 3.5 mph - N/A   Clear
4:15 AM 21.2 °F 12.6 °F 19.4 °F 93% 30.23 in 10.0 mi North 6.9 mph - N/A   Clear
4:35 AM 23.0 °F 15.8 °F 17.6 °F 80% 30.22 in 10.0 mi NNE 5.8 mph - N/A   Clear
4:55 AM 23.0 °F 15.8 °F 17.6 °F 80% 30.21 in 10.0 mi NNE 5.8 mph - N/A   Clear
5:15 AM 23.0 °F 17.0 °F 19.4 °F 86% 30.21 in 10.0 mi NNE 4.6 mph - N/A   Clear
5:35 AM 24.8 °F 17.9 °F 19.4 °F 80% 30.19 in 10.0 mi NE 5.8 mph - N/A   Clear
5:55 AM 21.2 °F - 15.8 °F 80% 30.19 in 10.0 mi Calm Calm - N/A   Clear
6:15 AM 24.8 °F 19.1 °F 19.4 °F 80% 30.19 in 10.0 mi NNE 4.6 mph - N/A   Clear
6:35 AM 24.8 °F 16.9 °F 19.4 °F 80% 30.18 in 10.0 mi NNE 6.9 mph - N/A   Clear
7:15 AM 26.6 °F 19.1 °F 19.4 °F 74% 30.19 in 10.0 mi NE 6.9 mph - N/A   Mostly Cloudy
7:35 AM 26.6 °F 18.2 °F 19.4 °F 74% 30.20 in 10.0 mi NE 8.1 mph - N/A   Overcast
7:55 AM 26.6 °F 19.1 °F 19.4 °F 74% 30.19 in 10.0 mi ENE 6.9 mph - N/A   Overcast
8:15 AM 26.6 °F 19.1 °F 19.4 °F 74% 30.20 in 10.0 mi NE 6.9 mph - N/A   Overcast
8:35 AM 26.6 °F 17.5 °F 19.4 °F 74% 30.20 in 10.0 mi NNE 9.2 mph - N/A   Overcast
8:55 AM 26.6 °F 17.5 °F 19.4 °F 74% 30.20 in 10.0 mi NNE 9.2 mph - N/A   Overcast
9:15 AM 26.6 °F 19.1 °F 19.4 °F 74% 30.19 in 10.0 mi NE 6.9 mph - N/A   Mostly Cloudy
9:35 AM 28.4 °F 20.4 °F 21.2 °F 74% 30.18 in 10.0 mi NE 8.1 mph - N/A   Mostly Cloudy
9:55 AM 28.4 °F 19.7 °F 21.2 °F 74% 30.18 in 10.0 mi NE 9.2 mph - N/A   Overcast
10:15 AM 28.4 °F 19.1 °F 21.2 °F 74% 30.15 in 10.0 mi ENE 10.4 mph - N/A   Overcast
10:35 AM 28.4 °F 19.1 °F 21.2 °F 74% 30.15 in 10.0 mi ENE 10.4 mph - N/A   Overcast
10:55 AM 30.2 °F 21.3 °F 21.2 °F 69% 30.15 in 10.0 mi ENE 10.4 mph - N/A   Overcast
11:35 AM 30.2 °F 23.4 °F 21.2 °F 69% 30.14 in 10.0 mi NE 6.9 mph - N/A   Overcast
11:55 AM 30.2 °F 22.6 °F 21.2 °F 69% 30.13 in 10.0 mi NE 8.1 mph - N/A   Overcast
12:15 PM 30.2 °F 20.8 °F 21.2 °F 69% 30.11 in 10.0 mi NE 11.5 mph - N/A   Overcast
12:35 PM 30.2 °F 21.9 °F 21.2 °F 69% 30.10 in 10.0 mi ENE 9.2 mph - N/A   Overcast
12:55 PM 30.2 °F 21.3 °F 21.2 °F 69% 30.09 in 10.0 mi NE 10.4 mph - N/A   Overcast
1:15 PM 30.2 °F 22.6 °F 23.0 °F 75% 30.07 in 1.8 mi ENE 8.1 mph - N/A   Overcast
1:35 PM 28.4 °F 19.7 °F 24.8 °F 86% 30.06 in 1.0 mi NE 9.2 mph 17.3 mph N/A   Overcast
1:55 PM 28.4 °F 19.7 °F 24.8 °F 86% 30.05 in 1.0 mi NE 9.2 mph - N/A   Overcast
2:15 PM 28.4 °F 19.7 °F 24.8 °F 86% 30.04 in 0.8 mi NE 9.2 mph - N/A   Overcast
2:35 PM 28.4 °F 19.7 °F 26.6 °F 93% 30.02 in 0.5 mi NE 9.2 mph - N/A   Overcast
2:55 PM 28.4 °F 19.7 °F 26.6 °F 93% 30.01 in 0.8 mi NE 9.2 mph 16.1 mph N/A   Overcast
3:15 PM 30.2 °F 21.3 °F 26.6 °F 86% 29.99 in 0.5 mi NE 10.4 mph - N/A   Overcast
3:35 PM 30.2 °F 21.3 °F 26.6 °F 86% 29.99 in 0.5 mi NE 10.4 mph 17.3 mph N/A   Overcast
3:55 PM 30.2 °F 21.9 °F 26.6 °F 86% 29.98 in 0.5 mi NE 9.2 mph 18.4 mph N/A   Overcast
4:15 PM 30.2 °F 20.8 °F 26.6 °F 86% 29.97 in 0.8 mi NE 11.5 mph 18.4 mph N/A   Overcast
4:35 PM 30.2 °F 20.2 °F 26.6 °F 86% 29.96 in 0.8 mi ENE 12.7 mph 18.4 mph N/A   Overcast
4:55 PM 30.2 °F 19.8 °F 26.6 °F 86% 29.95 in 1.5 mi NE 13.8 mph 20.7 mph N/A   Overcast
5:15 PM 30.2 °F 19.3 °F 24.8 °F 80% 29.94 in 3.0 mi ENE 15.0 mph 26.5 mph N/A   Overcast
5:35 PM 28.4 °F 16.6 °F 26.6 °F 93% 29.93 in 3.0 mi ENE 16.1 mph 20.7 mph N/A   Overcast
5:55 PM 28.4 °F 17.5 °F 24.8 °F 86% 29.93 in 4.0 mi ENE 13.8 mph 20.7 mph N/A   Overcast
6:15 PM 28.4 °F 17.0 °F 24.8 °F 86% 29.92 in 5.0 mi ENE 15.0 mph 24.2 mph N/A   Overcast
6:35 PM 28.4 °F 17.5 °F 24.8 °F 86% 29.93 in 3.0 mi ENE 13.8 mph 18.4 mph N/A   Overcast
6:55 PM 28.4 °F 17.5 °F 23.0 °F 80% 29.92 in 2.5 mi ENE 13.8 mph 20.7 mph N/A   Overcast
7:15 PM 26.6 °F 14.7 °F 23.0 °F 86% 29.91 in 2.0 mi ENE 15.0 mph 19.6 mph N/A   Overcast
7:35 PM 26.6 °F 15.7 °F 23.0 °F 86% 29.90 in 2.0 mi NE 12.7 mph 18.4 mph N/A   Overcast
7:55 PM 26.6 °F 16.2 °F 21.2 °F 80% 29.90 in 2.0 mi NE 11.5 mph 19.6 mph N/A   Overcast
8:15 PM 26.6 °F 15.7 °F 21.2 °F 80% 29.90 in 2.5 mi NE 12.7 mph 17.3 mph N/A   Overcast
8:35 PM 26.6 °F 15.7 °F 23.0 °F 86% 29.90 in 2.5 mi NE 12.7 mph 16.1 mph N/A   Overcast
8:55 PM 26.6 °F 16.8 °F 21.2 °F 80% 29.91 in 2.5 mi NE 10.4 mph 17.3 mph N/A   Overcast
9:15 PM 26.6 °F 16.2 °F 21.2 °F 80% 29.89 in 2.0 mi NE 11.5 mph - N/A   Overcast
9:35 PM 26.6 °F 17.5 °F 23.0 °F 86% 29.89 in 2.0 mi NNE 9.2 mph - N/A   Overcast
9:55 PM 26.6 °F 16.8 °F 21.2 °F 80% 29.88 in 2.5 mi NNE 10.4 mph 16.1 mph N/A   Overcast
10:15 PM 26.6 °F 17.5 °F 21.2 °F 80% 29.86 in 3.0 mi NE 9.2 mph - N/A   Overcast
10:35 PM 24.8 °F 14.0 °F 21.2 °F 86% 29.84 in 2.5 mi NE 11.5 mph 17.3 mph N/A   Overcast
10:55 PM 24.8 °F 14.6 °F 21.2 °F 86% 29.84 in 2.5 mi NNE 10.4 mph - N/A   Overcast
11:15 PM 24.8 °F 15.3 °F 21.2 °F 86% 29.83 in 2.5 mi NE 9.2 mph - N/A   Overcast
11:35 PM 24.8 °F 14.6 °F 19.4 °F 80% 29.82 in 3.0 mi NNE 10.4 mph - N/A   Overcast
11:55 PM 24.8 °F 15.3 °F 19.4 °F 80% 29.80 in 2.5 mi NE 9.2 mph 16.1 mph N/A   Overcast